Content
SEND FEEDBACK

Daily
Averages
Monthly
Summary
United States of America

NEWARK, NEW JERSEY


Home > North America > United States > New Jersey
Elevation: 30 feet     Latitude: 40 42N     Longitude: 074 10W

WEATHER
 
SELECT A DAY
Number of Records: 192,417;   Date Range: 1/1/95 - 10/22/14
 
SHARE

PRINT THIS DATA

[ ← Previous Day ]
WEATHER ALMANAC - JUNE 19, 2013
[ Next Day → ]
[ °C ]   °F
Weather ElementAverageHighLow
Temperature68.6 °F78.1 °F (2:51 pm)60.1 °F (5:51 am)
Dewpoint51.8 °F62.1 °F (1:51 am)39.9 °F (4:51 pm)
Humidity59.2 %93 % (1:51 am)26 % (4:51 pm)
Barometer30.02 in30.17 in (11:51 pm)29.89 in (1:51 am)
Wind Speed9.9 mph15 mph (6:51 am)
Wind Gust18.4 mph (3:51 pm)
Weather ElementAverage
Visibility10 mi
Wind DirectionSE (130.4 °)

Weather ElementTotal
Precipitation---
Cooling Degree Days4.1 (Base 65)
Growing Degree Days19.1 (Base 50)
Averaged from 25 records on June 19, 2013
WEATHER CONDITIONS BREAKOUT
WIND DIRECTION BREAKOUT
WEATHER BY HOUR - JUNE 19, 2013
[ °C ]   °F
Local TimeTemperatureDewpointHumidityBarometerVisibilityWind DirectionWind SpeedGust SpeedPrecipitationEventsConditions
1:51 AM64.0 °F62.1 °F93 %29.89 in10.0 miNorth (10°)12.7 mphOvercast
2:51 AM64.0 °F61.0 °F90 %29.90 in10.0 miNorth (10°)12.7 mphOvercast
3:51 AM63.0 °F60.1 °F90 %29.91 in10.0 miNorth (10°)11.5 mphOvercast
4:05 AM62.6 °F59.0 °F88 %29.91 in10.0 miNorth (350°)11.5 mphMostly Cloudy
4:51 AM61.0 °F57.0 °F87 %29.92 in10.0 miNorth (360°)8.1 mphMostly Cloudy
5:06 AM60.8 °F55.4 °F82 %29.93 in10.0 miNorth (10°)11.5 mphMostly Cloudy
5:51 AM60.1 °F55.0 °F83 %29.94 in10.0 miNorth (10°)9.2 mphMostly Cloudy
6:51 AM61.0 °F54.0 °F78 %29.95 in10.0 miNorth (10°)15.0 mphMostly Cloudy
7:51 AM64.0 °F53.1 °F67 %30.00 in10.0 miNNE (20°)11.5 mphMostly Cloudy
8:51 AM64.0 °F52.0 °F65 %30.02 in10.0 miNNE (20°)13.8 mphMostly Cloudy
9:51 AM66.9 °F53.1 °F61 %30.04 in10.0 miNorth (10°)11.5 mphScattered Clouds
10:51 AM70.0 °F52.0 °F53 %30.05 in10.0 miNorth (10°)11.5 mphScattered Clouds
11:51 AM73.0 °F48.0 °F41 %30.05 in10.0 miNNE (30°)11.5 mphScattered Clouds
12:51 PM73.9 °F46.9 °F38 %30.05 in10.0 miNE (50°)8.1 mphScattered Clouds
1:51 PM75.9 °F48.0 °F37 %30.05 in10.0 miNorth (360°)11.5 mphScattered Clouds
2:51 PM78.1 °F46.9 °F33 %30.06 in10.0 miNorth (350°)9.2 mphScattered Clouds
3:51 PM77.0 °F44.1 °F31 %30.06 in10.0 miNW (310°)6.9 mph18.4 mphScattered Clouds
4:51 PM77.0 °F39.9 °F26 %30.05 in10.0 miCalmScattered Clouds
5:51 PM77.0 °F44.1 °F31 %30.05 in10.0 miWNW (300°)8.1 mphScattered Clouds
6:51 PM77.0 °F45.0 °F32 %30.06 in10.0 miWNW (300°)8.1 mph17.3 mphScattered Clouds
7:51 PM75.0 °F46.9 °F37 %30.08 in10.0 miVariable6.9 mphScattered Clouds
8:51 PM72.0 °F53.1 °F51 %30.09 in10.0 miSSE (160°)6.9 mphScattered Clouds
9:51 PM68.0 °F54.0 °F61 %30.12 in10.0 miSouth (180°)11.5 mphPartly Cloudy
10:51 PM66.0 °F54.0 °F65 %30.15 in10.0 miSouth (190°)10.4 mphPartly Cloudy
11:51 PM64.9 °F51.1 °F61 %30.17 in10.0 miSSW (200°)8.1 mphPartly Cloudy
Hourly data recorded from KEWR, located miles away from Newark, New Jersey







STORIES FROM OUR PARTNERS